Tracking 25710 objects as of 7-Jul-2022
HD Live streaming from Space Station
objects crossing your sky now

FENGYUN 1C DEB

Track FENGYUN 1C DEB now!
10-day predictions


NORAD ID: 38518
Int'l Code: 1999-025ETD
Perigee: 737.9 km
Apogee: 776.6 km
Inclination: 99.2 °
Period: 99.8 minutes
Semi major axis: 7128 km
RCS: 0.0015 m2 (small)
Launch date: May 10, 1999
Source: People's Republic of China (PRC)
Launch site: Taiyaun Space Center, China (TSC)

Note: This is SATELLITE DEBRIS
aabbcc
Your satellite tracking list
Your tracking list is empty




NASA's NSSDC Master Catalog

Two Line Element Set (TLE):
1 38518U 99025ETD 22185.83498827  .00002664  00000-0  81451-3 0  9997
2 38518  99.2048 215.0901 0027095 258.6380 101.1763 14.42543513652107
Source of the keplerian elements: AFSPC